Regional Weather Roundup
Issued by NWS

Home | Current Version | Previous Version | Text Only | Print | Product List | Glossary Off
Versions: 1 2 3 4 5 6 7 8 9 10 11 12 13 14 15 16 17 18 19 20 21 22 23 24 25 26 27 28 29 30 31 32 33 34 35 36 37 38 39 40 41 42 43 44 45 46 47 48 49 50

140
ASUS43 KOAX 050710
RWRNE

WEATHER ROUNDUP FOR NEBRASKA
NATIONAL WEATHER SERVICE OMAHA NE
200 AM CDT THU MAY 05 2016

NOTES: SATELLITE DATA IS BEING USED TO AUGMENT CLOUD COVER ABOVE
       12000 FEET.
       "FAIR" INDICATES FEW OR NO CLOUDS BELOW 12,000 FEET WITH NO
       SIGNIFICANT WEATHER AND/OR OBSTRUCTIONS TO VISIBILITY.

  * THESE STATIONS DO NOT REPORT WEATHER SUCH AS RAIN...SNOW OR FOG.

NEZ001>004-019>022-054>056-050800-
NEBRASKA PANHANDLE

CITY           SKY/WX    TMP DP  RH WIND       PRES   REMARKS
SCOTTSBLUFF    CLEAR     50  41  71 E9        30.09S
ALLIANCE       CLEAR     46  42  86 S7        30.08S
CHADRON        CLEAR     51  41  68 CALM      30.04S
KIMBALL        CLEAR     46  40  79 S6        30.15S
SIDNEY         CLEAR     47  40  76 S8        30.13S
$$

NEZ057>060-069>072-079>082-050800-
SOUTHWEST NEBRASKA

CITY           SKY/WX    TMP DP  RH WIND       PRES   REMARKS
NORTH PLATTE   CLEAR     43  38  82 NE3       30.09R
IMPERIAL       CLEAR     51  42  71 SE5       30.11R
LEXINGTON      CLEAR     44  40  85 CALM      30.09F
MCCOOK         CLEAR     48  40  73 CALM      30.09S
OGALLALA       CLEAR     56  38  50 SW5       30.09F
$$

NEZ005>010-023>029-035>040-094-050800-
NORTH CENTRAL NEBRASKA

CITY           SKY/WX    TMP DP  RH WIND       PRES   REMARKS
VALENTINE      CLEAR     48  38  68 SW3       30.07S
AINSWORTH      CLEAR     44  37  77 S6        30.08S
BROKEN BOW     CLEAR     39  36  89 CALM      30.08S
O`NEILL        CLEAR     49  45  88 CALM      30.07S
ORD            CLEAR     39  36  89 CALM      30.06F
THEDFORD       CLEAR     48  38  69 CALM      30.10S
$$

NEZ041-046>049-061>064-073>077-083>087-050800-
SOUTH CENTRAL NEBRASKA

CITY           SKY/WX    TMP DP  RH WIND       PRES   REMARKS
GRAND ISLAND   CLEAR     47  36  65 CALM      30.07F
AURORA         CLEAR     49  35  58 CALM      30.06F
HASTINGS       CLEAR     46  37  71 CALM      30.07S
HEBRON         CLEAR     45  39  79 CALM      30.07S
HOLDREGE       CLEAR     50  37  61 E6        30.08S
KEARNEY *      CLEAR     48  39  71 CALM      30.09S
YORK           CLEAR     46  37  71 CALM      30.06F
$$

NEZ011>018-030>034-042>045-050800-
NORTHEAST NEBRASKA

CITY           SKY/WX    TMP DP  RH WIND       PRES   REMARKS
NORFOLK        CLEAR     47  35  63 CALM      30.05S
ALBION         CLEAR     41  36  83 CALM      30.07S
BLAIR          CLEAR     53  38  58 NW7       30.03R
COLUMBUS *     CLEAR     43  30  61 W5        30.06S
FREMONT        CLEAR     47  41  78 W5        30.04S
TEKAMAH        CLEAR     47  40  76 NW5       30.03R
WAYNE          CLEAR     42  37  80 CALM      30.05S
$$

NEZ050>053-065>068-078-088>093-050800-
SOUTHEAST NEBRASKA

CITY           SKY/WX    TMP DP  RH WIND       PRES   REMARKS
LINCOLN        CLEAR     45  39  79 CALM      30.06S
OMAHA EPPLEY   CLEAR     48  43  82 CALM      30.02S
BEATRICE       CLEAR     44  40  86 W3        30.05S
FALLS CITY     CLEAR     46  40  79 W5        30.02
NEBRASKA CITY  CLEAR     52  37  55 W7        30.02F
PLATTSMOUTH    CLEAR     53  41  63 W8        30.03R
$$

NEZ044-045-051>053-067-050800-
OMAHA AREA

CITY           SKY/WX    TMP DP  RH WIND       PRES   REMARKS
OMAHA EPPLEY   CLEAR     48  43  82 CALM      30.02S
BLAIR          CLEAR     53  38  58 NW7       30.03R
FREMONT        CLEAR     47  41  78 W5        30.04S
MILLARD        CLEAR     47  44  87 CALM      30.03S
OFFUTT AFB     CLEAR     47  43  87 W7        30.01S
PLATTSMOUTH    CLEAR     53  41  63 W8        30.03R
WAHOO          FAIR      52  38  60 NW6       30.04S
$$




USA.gov is the U.S. government's official web portal to all federal, state and local government web resources and services.